Location: Brienzwiler
(46.7508°N, 8.1014°E)
Time: 07:10:43
(UTC+00:00)

Cosmos 1624 Rocket - Pass Details

Date: 05 July 2020
Orbit: 758 x 783 km, 74.0° (Epoch: 05 August)

Event Time Altitude Azimuth Distance (km) Brightness Sun altitude
Rises 22:06:54 0° 340° (NNW) 3,248 9.0 -17.9°
Reaches altitude 10° 22:09:19 10° 344° (NNW) 2,313 7.8 -18.1°
Maximum altitude 22:14:31 61° 65° (ENE) 868 4.2 -18.4°
Enters shadow 22:16:55 31° 133° (SE) 1,316 4.7 -18.5°
